Location: Mansoura
(31.0409°N, 31.3785°E)
Time: 07:27:15
(UTC+03:00)

ACS3 Solar Sail - Visible Passes

Search period start: 18 September 2024 00:00
Search period end: 28 September 2024 00:00
Orbit: 971 x 1035 km, 97.4° (Epoch: 17 September)

Date Brightness Start Highest point End Pass type
(mag) Time Alt. Az. Time Alt. Az. Time Alt. Az.
18 Sep 2.2 20:41:46 42° E 20:42:08 43° ENE 20:48:06 10° N visible
18 Sep 3.7 22:27:01 24° W 22:27:01 24° W 22:31:16 10° NW visible
19 Sep 1.8 21:15:11 80° NE 21:15:11 80° NE 21:21:21 10° N visible
19 Sep 4.5 23:00:26 11° W 23:00:26 11° W 23:01:12 10° WNW visible
20 Sep 3.1 20:03:18 20° E 20:04:17 21° ENE 20:08:51 10° NNE visible
20 Sep 2.6 21:48:33 49° WNW 21:48:33 49° WNW 21:54:00 10° NNW visible
21 Sep 2.3 20:36:36 40° ENE 20:36:46 40° ENE 20:42:39 10° N visible
21 Sep 3.7 22:21:50 25° WNW 22:21:50 25° WNW 22:25:58 10° NW visible
22 Sep 1.8 21:09:50 73° NNE 21:09:50 73° NNE 21:15:45 10° N visible
22 Sep 4.5 22:55:04 11° WNW 22:55:04 11° WNW 22:56:09 10° WNW visible
23 Sep 3.1 19:57:47 19° ENE 19:58:34 20° ENE 20:02:56 10° NNE visible
23 Sep 2.6 21:43:00 50° WNW 21:43:00 50° WNW 21:48:17 10° NNW visible
24 Sep 2.4 20:30:53 38° ENE 20:30:53 38° ENE 20:36:37 10° N visible
24 Sep 3.7 22:16:07 26° WNW 22:16:07 26° WNW 22:20:07 10° NW visible
25 Sep 1.9 21:03:56 66° NNE 21:03:56 66° NNE 21:09:34 10° N visible
25 Sep 4.5 22:49:08 12° WNW 22:49:08 12° WNW 22:50:28 10° WNW visible
26 Sep 3.2 19:51:42 18° ENE 19:52:18 18° ENE 19:56:23 10° NNE visible
26 Sep 2.6 21:36:54 51° WNW 21:36:54 51° WNW 21:41:58 10° NNW visible
27 Sep 2.5 20:24:37 35° ENE 20:24:37 35° ENE 20:30:01 10° N visible
27 Sep 3.6 22:09:49 27° WNW 22:09:49 27° WNW 22:13:42 10° NW visible
